Weather History for KFXE - May, 2013

Change the Weather History Date:

Friday, May 10, 2013

  Actual Average (KFLL) Record (KFLL)
Temperature  
Mean Temperature 80 °F 79 °F  
Max Temperature 88 °F 85 °F 95 °F (2008)
Min Temperature 73 °F 73 °F 53 °F (1928)
Degree Days  
Heating Degree Days 0 0  
Month to date heating degree days 0  
Since 1 July heating degree days 112  
Cooling Degree Days 16 14  
Month to date cooling degree days 136  
Year to date cooling degree days 1083  
Growing Degree Days 30 (Base 50)    
Moisture  
Dew Point 70 °F    
Average Humidity 71    
Maximum Humidity 82    
Minimum Humidity 49    
Precipitation  
Precipitation 0.00 in 0.11 in 6.10 in (1919)
Month to date precipitation 0.84  
Year to date precipitation 13.68  
Snow  
Snow 0.00 in - - ()
Month to date snowfall  
Since 1 July snowfall  
Snow Depth -    
Sea Level Pressure  
Sea Level Pressure 30.09 in    
Wind  
Wind Speed 7 mph (SE)    
Max Wind Speed 17 mph    
Max Gust Speed 22 mph    
Visibility 10 miles    
Events      
T = Trace of Precipitation, MM = Missing Value Source: NWS Daily Summary

Daily Weather History Graph

Daily Weather History Graph

Search for Another Location

Airport or City:

Trip Planner

Search our weather history database for the weather conditions in past years. The results will help you decide how hot, cold, wet, or windy it might be!

Date:

Astronomy

May. 10, 2013 Rise Set
Actual Time 6:36 AM EDT 7:57 PM EDT
Civil Twilight 6:12 AM EDT 8:22 PM EDT
Nautical Twilight 5:42 AM EDT 8:51 PM EDT
Astronomical Twilight 5:12 AM EDT 9:22 PM EDT
Moon 7:00 AM EDT (5/10) 8:43 PM EDT (5/10)
Length of Visible Light 14h 10m
Length of Day
13h 20m
New Moon, 0% of the Moon is Illuminated
May 10
New Moon
May 18
First Quarter
May 25
Full
May 31
Last Quarter
Jun 8
New

Hourly Weather History & Observations

Time (EDT) Temp. Heat Index Dew Point Humidity Pressure Visibility Wind Dir Wind Speed Gust Speed Precip Events Conditions
12:53 AM 79.0 °F - 72.0 °F 79% 30.14 in 10.0 mi ESE 5.8 mph - N/A   Mostly Cloudy
1:00 AM 78.8 °F - 71.6 °F 78% 30.13 in 10.0 mi ESE 3.5 mph - N/A   Partly Cloudy
1:53 AM 79.0 °F - 72.0 °F 79% 30.11 in 10.0 mi ESE 5.8 mph - N/A   Mostly Cloudy
2:53 AM 78.1 °F - 71.1 °F 79% 30.10 in 10.0 mi ESE 4.6 mph - N/A   Partly Cloudy
3:35 AM 78.8 °F - 71.6 °F 78% 30.08 in 10.0 mi SE 4.6 mph - N/A   Mostly Cloudy
3:42 AM 78.8 °F - 71.6 °F 78% 30.08 in 10.0 mi SE 4.6 mph - N/A   Scattered Clouds
3:53 AM 78.8 °F - 71.6 °F 78% 30.08 in 10.0 mi SE 3.5 mph - N/A   Mostly Cloudy
4:53 AM 75.0 °F - 66.0 °F 73% 30.09 in 10.0 mi SE 5.8 mph - N/A   Partly Cloudy
5:53 AM 73.9 °F - 68.0 °F 82% 30.09 in 10.0 mi SE 5.8 mph - N/A   Clear
6:53 AM 73.9 °F - 68.0 °F 82% 30.09 in 10.0 mi Calm Calm - N/A   Clear
7:53 AM 77.0 °F - 66.2 °F 69% 30.09 in 10.0 mi Calm Calm - N/A   Clear
8:53 AM 81.0 °F 84.4 °F 70.0 °F 69% 30.11 in 10.0 mi East 9.2 mph - N/A   Partly Cloudy
9:53 AM 81.0 °F 84.9 °F 71.1 °F 72% 30.11 in 10.0 mi ESE 10.4 mph - N/A   Scattered Clouds
10:53 AM 84.0 °F 87.8 °F 69.1 °F 61% 30.12 in 10.0 mi SE 9.2 mph - N/A   Scattered Clouds
11:53 AM 84.9 °F 88.2 °F 68.0 °F 57% 30.11 in 10.0 mi Variable 4.6 mph - N/A   Scattered Clouds
12:53 PM 88.0 °F 90.7 °F 66.9 °F 49% 30.09 in 10.0 mi SE 12.7 mph - N/A   Partly Cloudy
1:53 PM 87.1 °F 91.3 °F 69.1 °F 55% 30.09 in 10.0 mi ESE 16.1 mph 20.7 mph N/A   Partly Cloudy
2:53 PM 87.1 °F 89.2 °F 66.0 °F 49% 30.07 in 10.0 mi SE 17.3 mph 21.9 mph N/A   Clear
3:53 PM 87.1 °F 90.6 °F 68.0 °F 53% 30.05 in 10.0 mi ESE 15.0 mph - N/A   Scattered Clouds
4:53 PM 82.9 °F 87.5 °F 71.1 °F 67% 30.04 in 10.0 mi SE 12.7 mph - N/A   Scattered Clouds
5:53 PM 82.0 °F 86.7 °F 72.0 °F 71% 30.05 in 10.0 mi SE 10.4 mph - N/A   Scattered Clouds
6:53 PM 81.0 °F 84.9 °F 71.1 °F 72% 30.06 in 10.0 mi SE 8.1 mph - N/A   Scattered Clouds
7:53 PM 81.0 °F 85.2 °F 72.0 °F 74% 30.06 in 10.0 mi South 8.1 mph - N/A   Scattered Clouds
8:53 PM 80.1 °F 83.8 °F 72.0 °F 76% 30.09 in 10.0 mi SSE 5.8 mph - N/A   Scattered Clouds
9:53 PM 80.1 °F 83.8 °F 72.0 °F 76% 30.08 in 10.0 mi SSE 8.1 mph - N/A   Clear
10:53 PM 79.0 °F - 73.0 °F 82% 30.08 in 10.0 mi SE 5.8 mph - N/A   Clear
11:53 PM 79.0 °F - 72.0 °F 79% 30.08 in 10.0 mi SSE 5.8 mph - N/A   Clear